Regional Weather Roundup
Issued by NWS

Home | Current Version | Previous Version | Text Only | Print | Product List | Glossary Off
Versions: 1 2 3 4 5 6 7 8 9 10 11 12 13 14 15 16 17 18 19 20 21 22 23 24 25 26 27 28 29 30 31 32 33 34 35 36 37 38 39 40 41 42 43 44 45 46 47 48 49 50

000
ASUS43 KIND 200359
RWRIN

WEATHER ROUNDUP FOR INDIANA
NATIONAL WEATHER SERVICE INDIANAPOLIS IN
1200 AM EDT SUN APR 20 2014

NOTE: "FAIR" INDICATES FEW OR NO CLOUDS BELOW 12,000 FEET WITH NO
SIGNIFICANT WEATHER AND/OR OBSTRUCTIONS TO VISIBILITY.

* - STATION DOES NOT REPORT WEATHER SUCH AS PRECIPITATION OR FOG.

+ - STATION NOT QUALITY CONTROLLED BY THE NATIONAL WEATHER SERVICE.
    USE DATA WITH CAUTION...ESPECIALLY DEWPOINT AND RELATIVE
    HUMIDITY OBSERVATIONS.

INZ001>003-010>013-019-020-200500-
NORTHWEST INDIANA

CITY           SKY/WX    TMP DP  RH WIND       PRES   REMARKS
VALPARAISO     MOCLDY    49  33  54 SE10      30.28F

$$

LMZ046-743>745-200500-
SOUTHERN LAKE MICHIGAN

STATION/POSITION TIME  TEMP WIND        PRES
                       AIR  DIR/SP/G
                 (UTC) (F)  (DEG/KT/KT) (MB)
MICHIGAN CITY    0300   57  110/  8/ 13   N/A

$$

INZ004-005-014>016-021>024-200500-
NORTH CENTRAL INDIANA

CITY           SKY/WX    TMP DP  RH WIND       PRES   REMARKS
GOSHEN         CLEAR     45  29  53 E8        30.31S
SOUTH BEND     PTCLDY    50  27  40 E9        30.32R

$$

INZ006>009-017-018-025>027-200500-
NORTHEAST INDIANA

CITY           SKY/WX    TMP DP  RH WIND       PRES   REMARKS
ANGOLA *+      CLEAR     43  27  52 CALM      30.33S
FORT WAYNE     PTCLDY    41  25  53 E8        30.32S

$$

INZ028-029-035-036-043>045-051>053-200500-
WEST CENTRAL INDIANA

CITY           SKY/WX    TMP DP  RH WIND       PRES   REMARKS
GREENCASTLE +  PTCLDY    54  39  58 E10       30.24F
LAFAYETTE      PTCLDY    52  36  54 E9        30.26R
TERRE HAUTE    PTCLDY    54  40  59 E7        30.22S

$$

INZ030>032-037>040-046>048-054>057-064-065-200500-
CENTRAL INDIANA

CITY           SKY/WX    TMP DP  RH WIND       PRES   REMARKS
INDIANAPOLIS   MOCLDY    55  33  43 E12       30.24F
-EAGLE CREEK   PTCLDY    53  33  46 E5        30.25F
KOKOMO *+      CLEAR     46  30  53 E12       30.27F
MT COMFORT *+  CLEAR     48  37  66 E3        30.27S
SHELBYVILLE    CLEAR     50  37  61 NE8       30.26S

$$

INZ033-034-041-042-049-050-058-059-200500-
EAST CENTRAL INDIANA

CITY           SKY/WX    TMP DP  RH WIND       PRES   REMARKS
MUNCIE         CLEAR     44  31  60 E7        30.28F

$$

INZ060-061-067>069-081>083-085>088-200500-
SOUTHWEST INDIANA

CITY           SKY/WX    TMP DP  RH WIND       PRES   REMARKS
EVANSVILLE     PTCLDY    59  42  53 NE3       30.20F
HUNTINGBURG *+ CLEAR     57  37  47 E8        30.21F

$$

INZ062-063-066-070>080-084-089>092-200500-
SOUTH CENTRAL AND SOUTHEAST INDIANA

CITY           SKY/WX    TMP DP  RH WIND       PRES   REMARKS
BLOOMINGTON    PTCLDY    52  38  58 CALM      30.24S

$$




USA.gov is the U.S. government's official web portal to all federal, state and local government web resources and services.